GW4277 Weather Reports


time (UTC)temp
C
wind
direction
speed
KPH
gust
KPH
rain 1hr
cm
rain 24hr
cm
rain mn
cm
humidity
%
barometer
mb
20260502130318 4 213 3.2 4.8 0.00 0.00 0.00 67 1021.1
20260502123803 3 131 3.2 3.2 0.00 0.00 0.00 70 1021.2
20260502123300 2 174 4.8 4.8 0.00 0.00 0.00 70 1021.3
20260502122757 2 162 3.2 4.8 0.00 0.00 0.00 71 1021.3
20260502122253 2 160 3.2 3.2 0.00 0.00 0.00 72 1021.3
20260502121751 2 123 0.0 3.2 0.00 0.00 0.00 71 1021.4
20260502121249 2 163 4.8 4.8 0.00 0.00 0.00 71 1021.3
20260502120745 2 122 0.0 3.2 0.00 0.00 0.00 72 1021.4
20260502120242 1 159 3.2 3.2 0.00 0.00 0.00 72 1021.5
20260502115740 1 132 3.2 3.2 0.00 0.00 0.00 72 1021.2
20260502115237 1 117 0.0 0.0 0.00 0.00 0.00 72 1021.2
20260502114732 1 135 0.0 0.0 0.00 0.00 0.00 73 1021.2
20260502114230 0 123 0.0 0.0 0.00 0.00 0.00 75 1021.2
20260502113727 0 115 0.0 0.0 0.00 0.00 0.00 78 1021.3
20260502113225 0 114 0.0 0.0 0.00 0.00 0.00 77 1021.3
20260502112723 0 114 0.0 0.0 0.00 0.00 0.00 78 1021.1
20260502112220 0 113 0.0 0.0 0.00 0.00 0.00 78 1021.2
20260502111717 0 112 0.0 0.0 0.00 0.00 0.00 77 1021.2
20260502111214 0 112 0.0 0.0 0.00 0.00 0.00 77 1021.2
20260502110712 0 112 0.0 0.0 0.00 0.00 0.00 79 1021.3
20260502110209 -1 110 0.0 0.0 0.00 0.00 0.00 80 1021.3
20260502105707 -1 116 0.0 0.0 0.00 0.00 0.00 81 1021.3
20260502105203 -1 113 0.0 0.0 0.00 0.00 0.00 81 1021.3
20260502104701 -1 112 0.0 0.0 0.00 0.00 0.00 80 1021.2
20260502104158 -1 112 0.0 0.0 0.00 0.00 0.00 81 1021.2
20260502103656 -1 112 0.0 0.0 0.00 0.00 0.00 80 1021.3
20260502103153 -1 112 0.0 0.0 0.00 0.00 0.00 79 1021.3
20260502102650 0 114 0.0 0.0 0.00 0.00 0.00 79 1021.3
20260502102147 0 115 0.0 0.0 0.00 0.00 0.00 78 1021.3
20260502101645 0 115 0.0 0.0 0.00 0.00 0.00 77 1021.5
20260502101143 0 115 0.0 0.0 0.00 0.00 0.00 75 1021.5
20260502100641 0 115 0.0 0.0 0.00 0.00 0.00 73 1021.3
20260502100139 1 115 0.0 0.0 0.00 0.00 0.00 72 1021.6
20260502091113 0 112 0.0 0.0 0.00 0.00 0.00 76 1021.4
20260502090610 0 113 0.0 0.0 0.00 0.00 0.00 78 1021.5
20260502090107 0 114 0.0 0.0 0.00 0.00 0.00 77 1021.4
20260502071505 1 109 0.0 0.0 0.00 0.00 0.00 75 1021.7
20260502071003 1 109 0.0 0.0 0.00 0.00 0.00 77 1021.8
20260502070500 1 112 0.0 0.0 0.00 0.00 0.00 77 1021.7
20260502065958 1 110 0.0 0.0 0.00 0.00 0.00 74 1021.6
20260502065457 1 110 0.0 0.0 0.00 0.00 0.00 73 1021.6
20260502064954 1 110 0.0 0.0 0.00 0.00 0.00 73 1021.8
20260502064452 1 111 0.0 0.0 0.00 0.00 0.00 75 1021.7
20260502063949 1 113 0.0 0.0 0.00 0.00 0.00 74 1021.9
20260502063447 1 114 0.0 0.0 0.00 0.00 0.00 74 1021.8
20260502062944 0 114 0.0 0.0 0.00 0.00 0.00 75 1021.8
20260502062441 0 110 0.0 0.0 0.00 0.00 0.00 75 1021.9
20260502061940 0 110 0.0 0.0 0.00 0.00 0.00 74 1021.8
20260502061437 1 110 0.0 0.0 0.00 0.00 0.00 70 1021.9
20260502060933 1 110 0.0 0.0 0.00 0.00 0.00 68 1021.8
20260502060429 2 110 0.0 0.0 0.00 0.00 0.00 66 1021.7
20260502055926 2 108 0.0 0.0 0.00 0.00 0.00 65 1021.6
20260502055423 2 109 0.0 0.0 0.00 0.00 0.00 68 1021.8
20260502054918 2 109 0.0 0.0 0.00 0.00 0.00 67 1021.6
20260502054415 2 109 0.0 0.0 0.00 0.00 0.00 67 1021.7
20260502053912 2 109 0.0 0.0 0.00 0.00 0.00 67 1021.6
20260502053409 2 109 0.0 0.0 0.00 0.00 0.00 69 1021.7
20260502052906 2 109 0.0 0.0 0.00 0.00 0.00 68 1021.8
20260502052405 2 109 0.0 0.0 0.00 0.00 0.00 66 1021.7
20260502051902 2 109 0.0 0.0 0.00 0.00 0.00 64 1021.6
20260502051401 3 109 0.0 0.0 0.00 0.00 0.00 65 1021.7
20260502050857 2 108 0.0 0.0 0.00 0.00 0.00 65 1021.6
20260502050354 3 110 0.0 0.0 0.00 0.00 0.00 65 1021.7
20260502045850 3 110 0.0 0.0 0.00 0.00 0.00 64 1021.8
20260502045347 3 105 0.0 0.0 0.00 0.00 0.00 63 1021.7
20260502044844 3 106 0.0 0.0 0.00 0.00 0.00 63 1021.7
20260502044340 3 104 0.0 0.0 0.00 0.00 0.00 61 1021.7
20260502043837 3 104 0.0 0.0 0.00 0.00 0.00 60 1021.7
20260502043334 3 103 0.0 0.0 0.00 0.00 0.00 59 1021.8
20260502042829 3 102 0.0 0.0 0.00 0.00 0.00 59 1021.6
20260502042326 3 105 0.0 0.0 0.00 0.00 0.00 60 1021.8
20260502041824 4 106 0.0 0.0 0.00 0.00 0.00 59 1021.7
20260502041320 4 107 0.0 0.0 0.00 0.00 0.00 59 1021.5
20260502040818 4 104 0.0 0.0 0.00 0.00 0.00 58 1021.7
20260502040315 4 105 0.0 0.0 0.00 0.00 0.00 58 1021.6
20260502035810 3 108 0.0 0.0 0.00 0.00 0.00 59 1021.6
20260502035307 4 105 0.0 0.0 0.00 0.00 0.00 60 1021.6
20260502034805 4 108 0.0 0.0 0.00 0.00 0.00 58 1021.6
20260502034303 4 108 0.0 0.0 0.00 0.00 0.00 58 1021.5
20260502033801 5 106 0.0 0.0 0.00 0.00 0.00 56 1021.4
20260502033258 5 96 0.0 0.0 0.00 0.00 0.00 55 1021.4
20260502032755 5 99 0.0 0.0 0.00 0.00 0.00 54 1021.5
20260502032251 5 108 0.0 0.0 0.00 0.00 0.00 53 1021.3
20260502031749 5 106 0.0 0.0 0.00 0.00 0.00 52 1021.4
20260502031247 5 109 0.0 0.0 0.00 0.00 0.00 53 1021.2
20260502030745 5 106 0.0 0.0 0.00 0.00 0.00 53 1021.3
20260502030243 5 105 0.0 0.0 0.00 0.00 0.00 53 1021.2
20260502025740 5 103 0.0 0.0 0.00 0.00 0.00 52 1021.1
20260502025238 5 106 0.0 0.0 0.00 0.00 0.00 52 1021.0
20260502024735 5 109 0.0 0.0 0.00 0.00 0.00 53 1021.3
20260502024233 5 110 0.0 0.0 0.00 0.00 0.00 53 1021.2
20260502023731 6 111 0.0 0.0 0.00 0.00 0.00 52 1021.1
20260502023228 6 111 0.0 0.0 0.00 0.00 0.00 52 1021.0
20260502022726 6 110 0.0 0.0 0.00 0.00 0.00 51 1021.0
20260502022222 6 113 0.0 0.0 0.00 0.00 0.00 52 1020.9
20260502021719 6 112 0.0 0.0 0.00 0.00 0.00 51 1021.0
20260502021216 6 114 0.0 0.0 0.00 0.00 0.00 49 1020.9
20260502020713 7 112 0.0 0.0 0.00 0.00 0.00 48 1020.9
20260502020210 7 113 0.0 0.0 0.00 0.00 0.00 47 1020.8
20260502015709 7 109 0.0 0.0 0.00 0.00 0.00 46 1020.8
20260502015204 7 115 0.0 0.0 0.00 0.00 0.00 46 1020.7
20260502014702 8 64 3.2 3.2 0.00 0.00 0.00 45 1020.9
20260502014159 8 107 0.0 0.0 0.00 0.00 0.00 45 1020.8
20260502013655 8 104 0.0 3.2 0.00 0.00 0.00 44 1020.6
20260502013150 8 75 3.2 4.8 0.00 0.00 0.00 44 1020.5
20260502012648 9 86 3.2 4.8 0.00 0.00 0.00 43 1020.5
20260502012146 9 80 1.6 4.8 0.00 0.00 0.00 42 1020.4
20260502011642 10 89 3.2 3.2 0.00 0.00 0.00 42 1020.5
20260502011138 10 72 3.2 4.8 0.00 0.00 0.00 41 1020.4
20260502010636 10 49 9.7 11.3 0.00 0.00 0.00 40 1020.4
20260502010132 10 116 1.6 3.2 0.00 0.00 0.00 39 1020.3
20260502005630 11 77 4.8 4.8 0.00 0.00 0.00 39 1020.4
20260502005127 11 64 8.0 11.3 0.00 0.00 0.00 38 1020.3
20260502004623 11 93 1.6 4.8 0.00 0.00 0.00 38 1020.5
20260502004120 11 99 6.4 8.0 0.00 0.00 0.00 37 1020.1
20260502003618 11 102 8.0 11.3 0.00 0.00 0.00 37 1020.2
20260502003114 11 86 3.2 3.2 0.00 0.00 0.00 37 1020.2
20260502002610 11 27 8.0 11.3 0.00 0.00 0.00 36 1020.1
20260502002108 11 84 6.4 8.0 0.00 0.00 0.00 37 1020.1
20260502001606 11 95 3.2 4.8 0.00 0.00 0.00 37 1020.2
20260502001103 11 81 6.4 8.0 0.00 0.00 0.00 36 1020.2
20260502000601 12 309 16.1 19.3 0.00 0.00 0.00 36 1020.0
20260502000058 12 312 9.7 14.5 0.00 0.00 0.00 36 1020.1
20260501235554 12 348 4.8 8.0 0.00 0.00 0.00 36 1020.2
20260501235050 11 108 4.8 8.0 0.00 0.00 0.00 37 1020.2
20260501234545 12 75 9.7 11.3 0.00 0.00 0.00 37 1020.2
20260501234044 12 92 9.7 14.5 0.00 0.00 0.00 37 1020.2
20260501233541 12 95 8.0 11.3 0.00 0.00 0.00 36 1020.0
20260501233038 12 349 12.9 19.3 0.00 0.00 0.00 35 1020.2
20260501232534 12 105 4.8 4.8 0.00 0.00 0.00 36 1020.1
20260501232032 12 83 14.5 19.3 0.00 0.00 0.00 34 1020.0
20260501231529 12 66 6.4 8.0 0.00 0.00 0.00 35 1020.1
20260501231027 12 56 6.4 8.0 0.00 0.00 0.00 37 1020.1
20260501230526 12 74 4.8 8.0 0.00 0.00 0.00 36 1020.1
20260501230023 12 331 9.7 14.5 0.00 0.00 0.00 36 1020.1
20260501225521 12 105 12.9 19.3 0.00 0.00 0.00 35 1020.1
20260501225016 13 38 9.7 14.5 0.00 0.00 0.00 35 1020.0
20260501224515 12 99 16.1 19.3 0.00 0.00 0.00 37 1019.7
20260501224011 12 51 8.0 11.3 0.00 0.00 0.00 38 1020.1
20260501223508 12 18 16.1 24.1 0.00 0.00 0.00 37 1019.7
20260501223004 13 70 11.3 14.5 0.00 0.00 0.00 36 1020.1
20260501222500 12 60 9.7 14.5 0.00 0.00 0.00 37 1020.2
20260501221956 13 94 6.4 11.3 0.00 0.00 0.00 37 1020.0
20260501221454 13 70 6.4 11.3 0.00 0.00 0.00 38 1020.0
20260501220952 12 97 6.4 8.0 0.00 0.00 0.00 38 1020.0
20260501220449 12 117 17.7 22.5 0.00 0.00 0.00 37 1020.3
20260501215945 12 115 6.4 8.0 0.00 0.00 0.00 39 1020.1
20260501215442 12 55 16.1 22.5 0.00 0.00 0.00 38 1020.0
20260501214937 13 317 6.4 14.5 0.00 0.00 0.00 35 1019.9
20260501214433 13 95 9.7 14.5 0.00 0.00 0.00 35 1020.2
20260501213928 13 357 8.0 14.5 0.00 0.00 0.00 35 1020.1
20260501213426 12 102 11.3 16.1 0.00 0.00 0.00 36 1020.0
20260501212921 12 294 14.5 19.3 0.00 0.00 0.00 37 1020.2
20260501212418 13 66 20.9 24.1 0.00 0.00 0.00 36 1020.3
20260501211915 12 55 9.7 11.3 0.00 0.00 0.00 37 1020.3
20260501211413 11 88 4.8 8.0 0.00 0.00 0.00 38 1020.3
20260501210910 11 320 8.0 11.3 0.00 0.00 0.00 38 1020.5
20260501210406 12 284 9.7 16.1 0.00 0.00 0.00 37 1020.5
20260501205903 12 93 3.2 4.8 0.00 0.00 0.00 39 1020.2
20260501205400 12 39 11.3 16.1 0.00 0.00 0.00 37 1020.4
20260501204857 11 52 11.3 16.1 0.00 0.00 0.00 38 1020.4
20260501204353 12 57 19.3 24.1 0.00 0.00 0.00 36 1020.5
20260501203849 12 80 12.9 16.1 0.00 0.00 0.00 38 1020.4
20260501203346 12 78 3.2 4.8 0.00 0.00 0.00 36 1020.3
20260501202843 11 83 6.4 16.1 0.00 0.00 0.00 39 1020.7
20260501202340 13 94 6.4 8.0 0.00 0.00 0.00 39 1020.5
20260501201837 12 56 4.8 4.8 0.00 0.00 0.00 38 1020.8
20260501201334 13 13 14.5 19.3 0.00 0.00 0.00 38 1020.5
20260501200830 11 328 9.7 11.3 0.00 0.00 0.00 40 1020.3
20260501200328 12 309 16.1 19.3 0.00 0.00 0.00 39 1020.7
20260501195825 12 89 6.4 11.3 0.00 0.00 0.00 41 1020.6
20260501195320 12 19 17.7 22.5 0.00 0.00 0.00 38 1020.6
20260501194811 12 72 6.4 11.3 0.00 0.00 0.00 39 1020.5
20260501194307 12 46 9.7 11.3 0.00 0.00 0.00 43 1020.6
20260501193804 12 68 14.5 16.1 0.00 0.00 0.00 40 1020.8
20260501193303 11 124 12.9 16.1 0.00 0.00 0.00 41 1020.8
20260501192800 11 9 9.7 11.3 0.00 0.00 0.00 41 1020.7
20260501192256 11 336 14.5 22.5 0.00 0.00 0.00 39 1020.8
20260501191753 11 89 3.2 4.8 0.00 0.00 0.00 42 1020.8
20260501191251 11 94 27.4 33.8 0.00 0.00 0.00 41 1020.8
20260501190747 11 314 11.3 11.3 0.00 0.00 0.00 45 1020.9
20260501190243 11 69 19.3 24.1 0.00 0.00 0.00 43 1020.8
20260501185739 11 73 6.4 8.0 0.00 0.00 0.00 43 1020.8
20260501185235 10 25 11.3 14.5 0.00 0.00 0.00 42 1020.9
20260501184731 10 69 16.1 22.5 0.00 0.00 0.00 43 1020.8
20260501184226 10 101 14.5 19.3 0.00 0.00 0.00 44 1020.7
20260501183723 10 104 14.5 22.5 0.00 0.00 0.00 43 1020.9
20260501183220 9 109 8.0 11.3 0.00 0.00 0.00 46 1021.0
20260501182716 10 51 14.5 22.5 0.00 0.00 0.00 45 1020.9
20260501182213 10 161 11.3 19.3 0.00 0.00 0.00 44 1021.0
20260501181710 10 49 14.5 19.3 0.00 0.00 0.00 43 1020.8
20260501181208 10 51 16.1 24.1 0.00 0.00 0.00 46 1021.1
20260501180706 10 106 11.3 14.5 0.00 0.00 0.00 42 1021.0
20260501180201 10 333 12.9 16.1 0.00 0.00 0.00 44 1021.2
20260501175658 10 343 6.4 11.3 0.00 0.00 0.00 45 1021.1
20260501175155 10 20 16.1 19.3 0.00 0.00 0.00 43 1021.3
20260501174651 9 48 9.7 11.3 0.00 0.00 0.00 47 1021.2
20260501174149 10 331 12.9 19.3 0.00 0.00 0.00 47 1021.3
20260501173646 8 328 11.3 14.5 0.00 0.00 0.00 47 1021.2
20260501173144 10 65 12.9 16.1 0.00 0.00 0.00 47 1021.1
20260501172640 9 65 6.4 11.3 0.00 0.00 0.00 47 1021.3
20260501172135 10 341 9.7 16.1 0.00 0.00 0.00 44 1021.2
20260501171631 10 49 12.9 24.1 0.00 0.00 0.00 46 1021.2
20260501171127 9 15 17.7 22.5 0.00 0.00 0.00 45 1021.2
20260501170624 10 37 22.5 30.6 0.00 0.00 0.00 43 1021.0
20260501170121 9 76 12.9 16.1 0.00 0.00 0.00 48 1021.2
20260501165613 8 42 14.5 19.3 0.00 0.00 0.00 47 1021.1
20260501165110 9 72 9.7 14.5 0.00 0.00 0.00 46 1021.1
20260501164608 9 328 17.7 22.5 0.00 0.00 0.00 46 1021.1
20260501164105 7 69 9.7 14.5 0.00 0.00 0.00 49 1021.2
20260501163601 9 8 9.7 14.5 0.00 0.00 0.00 47 1021.2
20260501163058 8 330 17.7 24.1 0.00 0.00 0.00 46 1021.1
20260501162554 8 66 12.9 16.1 0.00 0.00 0.00 47 1021.1
20260501162051 8 37 9.7 11.3 0.00 0.00 0.00 48 1021.1
20260501161549 8 341 11.3 16.1 0.00 0.00 0.00 48 1021.1
20260501161045 9 31 11.3 16.1 0.00 0.00 0.00 47 1021.1
20260501160542 8 310 16.1 22.5 0.00 0.00 0.00 49 1021.0
20260501160039 7 342 12.9 16.1 0.00 0.00 0.00 50 1021.2
20260501155535 8 25 11.3 14.5 0.00 0.00 0.00 49 1021.0
20260501155033 7 39 11.3 14.5 0.00 0.00 0.00 51 1021.1
20260501154530 7 39 9.7 11.3 0.00 0.00 0.00 50 1021.2
20260501154027 8 25 14.5 19.3 0.00 0.00 0.00 49 1021.1
20260501153525 7 58 8.0 11.3 0.00 0.00 0.00 51 1021.1
20260501153021 8 293 12.9 16.1 0.00 0.00 0.00 49 1021.0
20260501152518 7 331 9.7 14.5 0.00 0.00 0.00 51 1021.0
20260501152015 7 335 11.3 14.5 0.00 0.00 0.00 50 1021.0
20260501151512 7 71 8.0 11.3 0.00 0.00 0.00 50 1021.2
20260501151009 7 340 9.7 14.5 0.00 0.00 0.00 51 1021.1
20260501150504 7 26 6.4 8.0 0.00 0.00 0.00 52 1021.2
20260501150001 7 340 6.4 11.3 0.00 0.00 0.00 52 1021.2
20260501145457 7 314 11.3 14.5 0.00 0.00 0.00 51 1021.1
20260501144955 7 57 9.7 14.5 0.00 0.00 0.00 52 1021.2
20260501144450 7 98 9.7 16.1 0.00 0.00 0.00 51 1021.2
20260501143946 7 315 4.8 11.3 0.00 0.00 0.00 54 1021.0
20260501143442 7 325 8.0 11.3 0.00 0.00 0.00 54 1021.3
20260501142939 7 3 4.8 4.8 0.00 0.00 0.00 56 1021.2
20260501142437 6 60 6.4 8.0 0.00 0.00 0.00 57 1021.1
20260501141932 6 85 12.9 14.5 0.00 0.00 0.00 55 1021.1
20260501141428 6 42 16.1 30.6 0.00 0.00 0.00 55 1021.0
20260501140926 6 75 14.5 19.3 0.00 0.00 0.00 55 1020.9
20260501140422 6 33 6.4 8.0 0.00 0.00 0.00 58 1021.0
20260501135919 6 74 11.3 19.3 0.00 0.00 0.00 56 1020.9